This demonstration page uses our WeatherBlox Daily Observations layout. Learn more.

Left ArrowRight Arrow

31.31129, -92.44514

Hourly Observations for August 17, 2016

Temp ( °F °C ) Dew Point ( °F °C ) Humidity (%) Winds ( mph kmh ) Pressure ( in mb ) Visibility ( mi km ) Precip ( " mm )
12:39 am 00:39 Partly Cloudy 73 22.8 73 22.8 100 100 SE 5 7 30.12 1020 10 16 0.00 0.00
12:53 am 00:53 Mostly Cloudy 73 22.8 73 22.8 100 100 SSE 3 6 30.12 1020 10 16 0.00 0.00
1:53 am 01:53 Clear 73 22.8 73 22.8 100 100 SE 7 11 30.11 1020 10 16 0.00 0.00
2:12 am 02:12 Partly Cloudy 73 22.8 73 22.8 100 100 SE 6 9 30.09 1019 10 16 0.00 0.00
2:20 am 02:20 Mostly Cloudy 73 22.8 73 22.8 100 100 SE 8 13 30.09 1019 10 16 0.00 0.00
2:32 am 02:32 Cloudy 74 23.3 74 23.3 100 100 SE 6 9 30.09 1019 10 16 0.00 0.00
2:53 am 02:53 Cloudy 74 23.3 74 23.3 100 100 ESE 7 11 30.10 1019 10 16 0.00 0.00
3:14 am 03:14 Cloudy 74 23.3 74 23.3 100 100 ESE 7 11 30.09 1019 10 16 0.00 0.00
3:53 am 03:53 Cloudy 74 23.3 74 23.3 100 100 E 3 6 30.08 1019 9 14 0.00 0.00
4:43 am 04:43 Cloudy 74 23.3 74 23.3 100 100 Calm 30.09 1019 8 13 0.00 0.00
4:53 am 04:53 Cloudy 74 23.3 74 23.3 100 100 SE 3 6 30.09 1019 8 13 0.00 0.00
5:53 am 05:53 Cloudy 74 23.3 74 23.3 100 100 Calm 30.10 1019 7 11 0.00 0.00
6:49 am 06:49 Partly Cloudy with Mist and Fog 73 23 73 23 100 100 Calm 30.09 1019 5 8 0.00 0.00
6:53 am 06:53 Partly Cloudy with Mist and Fog 74 23.3 74 23.3 100 100 Calm 30.11 1020 5 8 0.00 0.00
7:49 am 07:49 Mostly Cloudy with Mist and Fog 73 23 73 23 100 100 ENE 5 7 30.12 1020 6 10 0.00 0.00
7:53 am 07:53 Mostly Cloudy with Mist and Fog 74 23.3 74 23.3 100 100 E 5 7 30.12 1020 6 10 0.00 0.00
8:22 am 08:22 Cloudy 75 23.9 74 23.3 96 96 E 7 11 30.12 1020 8 13 0.00 0.00
8:53 am 08:53 Mostly Cloudy 75 23.9 74 23.3 96 96 E 6 9 30.14 1021 9 14 0.00 0.00
9:19 am 09:19 Partly Cloudy 76 24.4 74 23.3 94 94 SE 3 6 30.12 1020 9 14 0.00 0.00
9:32 am 09:32 Mostly Cloudy 76 24.4 74 23.3 94 94 ESE 5 7 30.15 1021 10 16 0.00 0.00
9:53 am 09:53 Cloudy 77 25 75 23.9 94 94 ESE 5 7 30.15 1021 10 16 0.00 0.00
10:01 am 10:01 Cloudy 78 25.6 74 23.3 87 87 E 3 6 30.15 1021 10 16 0.00 0.00
10:53 am 10:53 Sunny 82 27.8 74 23.3 77 77 VRB 5 7 30.14 1021 10 16 0.00 0.00
11:39 am 11:39 Mostly Cloudy 86 30 77 25 75 75 SE 7 11 30.12 1020 10 16 0.00 0.00
11:53 am 11:53 Mostly Cloudy 85 29.4 76 24.4 75 75 ESE 7 11 30.14 1021 10 16 0.00 0.00
12:26 pm 12:26 Partly Cloudy 87 30.6 76 24.4 70 70 SE 7 11 30.12 1020 10 16 0.00 0.00
12:38 pm 12:38 Mostly Cloudy 87 30.6 76 24.4 70 70 SSE 12 19 30.12 1020 10 16 0.00 0.00
12:53 pm 12:53 Mostly Cloudy 86 30 74 23.3 67 67 SE 8 13 30.12 1020 10 16 0.00 0.00
1:07 pm 13:07 Mostly Sunny 88 31.1 75 23.9 66 66 S 9 15 30.09 1019 10 16 0.00 0.00
1:53 pm 13:53 Partly Cloudy 89 31.7 75 23.9 63 63 SE 9 15 30.09 1019 10 16 0.00 0.00
2:53 pm 14:53 Partly Cloudy 89 31.7 75 23.9 63 63 ESE 12 19 30.06 1018 10 16 0.00 0.00
3:53 pm 15:53 Sunny 85 29.4 75 23.9 72 72 S 8 13 30.06 1018 10 16 0.00 0.00
4:25 pm 16:25 Mostly Cloudy with Thunderstorms 78 25.6 73 22.8 85 85 W 14 22 30.06 1018 10 16 0.00 0.00
4:40 pm 16:40 Cloudy with Nearby Thunderstorms 77 25 73 22.8 88 88 W 9 15 30.09 1019 10 16 0.00 0.00
4:53 pm 16:53 Cloudy with Strong Thunderstorms 74 23.3 71 21.7 91 91 S 9 15 30.10 1019 2 3 0.04 1.02
5:13 pm 17:13 Mostly Cloudy with Thunderstorms 74 23.3 71 21.7 91 91 Calm 30.09 1019 5 8 0.04 1.02
5:22 pm 17:22 Mostly Cloudy with Light Rain 74 23.3 71 21.7 91 91 WSW 3 6 30.09 1019 9 14 0.04 1.02
5:53 pm 17:53 Mostly Sunny 74 23.3 72 22.2 94 94 NNW 3 6 30.09 1019 10 16 0.05 1.27
6:53 pm 18:53 Mostly Cloudy 75 23.9 74 23.3 96 96 NW 5 7 30.07 1018 10 16 0.00 0.03
7:53 pm 19:53 Clear 74 23.3 73 22.8 97 97 Calm 30.09 1019 10 16 0.00 0.00
8:53 pm 20:53 Clear 74 23.3 73 22.8 97 97 Calm 30.11 1020 10 16 0.00 0.00
9:53 pm 21:53 Clear 74 23.3 73 22.8 97 97 Calm 30.13 1020 9 14 0.00 0.00
10:53 pm 22:53 Clear 74 23.3 73 22.8 97 97 Calm 30.13 1020 9 14 0.00 0.00
11:53 pm 23:53 Clear 73 22.8 73 22.8 100 100 E 3 6 30.12 1020 10 16 0.00 0.00

Powered by AerisWeather